Wijchen, Netherlands
Current Conditions -  °F | °C
As of 3:25 PM on Friday 24 Oct 2014 (Local Time) from EHVK Reporting Station
Overcast Overcast  
Wind Chill: 54°   Ceiling: 3700
Heat Index: 54°   Visibility: 6mi
Dew Point: 50°   Wind: 10mph
Humidity: 88%   Direction: 180°S
Pressure: 30.06"   Gusts: NA
Location:  51.81°N, 5.73°E
Report Text: EHVK 241325Z AUTO 18009KT 9999 OVC037 12/10 Q1018 BLU 18009KT 9999 FEW021 BKN040
Loading
Personal Weather Stations






























Interactive Weather Map
Tropical Storm Tracking
New forecast layout! Learn more

10-Day Weather Forecast

Advertisements
Track Severe Weather on mobile